Location: Newark
(45.2500°N, 7.5833°E)
Time: 11:57:04
(UTC+00:00)

Vanguard 2 Rocket - All Passes

Search period start: 20 January 2020 00:00
Search period end: 30 January 2020 00:00
Orbit: 554 x 3326 km, 32.9° (Epoch: 19 January)

Date Brightness Start Highest point End Pass type
(mag) Time Alt. Az. Time Alt. Az. Time Alt. Az.
20 Jan - 05:56:27 10° SSW 06:01:13 25° SSE 06:08:17 10° ESE visible
20 Jan - 08:06:59 10° WSW 08:13:57 39° S 08:25:36 10° ESE daylight
20 Jan - 10:19:15 10° WSW 10:28:09 33° SSW 10:41:50 10° SE daylight
20 Jan - 12:34:50 10° WSW 12:43:08 18° SSW 12:53:27 10° S daylight
21 Jan - 04:58:54 10° S 05:02:12 16° SSE 05:06:25 10° ESE visible
21 Jan - 07:08:22 10° SW 07:14:15 35° S 07:23:48 10° ESE daylight
21 Jan - 09:20:02 10° WSW 09:27:50 35° S 09:40:24 10° SE daylight
21 Jan - 11:33:57 10° WSW 11:42:29 22° SSW 11:54:00 10° SSE daylight
22 Jan - 06:10:02 10° SW 06:14:52 28° SSE 06:22:13 10° ESE visible
22 Jan - 08:21:05 10° WSW 08:27:49 35° S 08:38:49 10° SE daylight
22 Jan - 10:33:57 10° WSW 10:42:00 26° SSW 10:53:39 10° SSE daylight
22 Jan - 12:54:39 10° SW 12:56:47 10° SW 12:59:02 10° SSW daylight
23 Jan - 05:12:00 10° SSW 05:15:45 20° SSE 05:20:50 10° ESE visible
23 Jan - 07:22:23 10° WSW 07:28:05 33° S 07:37:17 10° ESE daylight
23 Jan - 09:34:29 10° WSW 09:41:44 28° SSW 09:52:47 10° SE daylight
23 Jan - 11:50:24 10° WSW 11:56:16 14° SSW 12:03:21 10° S daylight
24 Jan - 04:14:39 10° S 04:16:47 13° SSE 04:19:15 10° SE visible
24 Jan - 06:23:52 10° SW 06:28:39 29° S 06:35:57 10° ESE visible
24 Jan - 08:35:23 10° WSW 08:41:45 30° S 08:51:39 10° SE daylight
24 Jan - 10:49:24 10° WSW 10:55:52 18° SSW 11:04:23 10° S daylight
25 Jan - 05:25:34 10° SW 05:29:27 23° SSE 05:34:52 10° ESE visible
25 Jan - 07:36:33 10° WSW 07:42:01 29° S 07:50:30 10° SE daylight
25 Jan - 09:49:26 10° WSW 09:55:40 21° SSW 10:04:24 10° SSE daylight
26 Jan - 04:27:33 10° SSW 04:30:25 17° SSE 04:33:55 10° ESE visible
26 Jan - 06:37:55 10° SW 06:42:33 27° S 06:49:27 10° ESE daylight
26 Jan - 08:50:02 10° WSW 08:55:42 22° SSW 09:03:55 10° SSE daylight
26 Jan - 11:08:25 10° SW 11:09:47 10° SSW 11:11:12 10° SSW daylight
27 Jan - 03:30:36 10° SSE 03:31:27 10° SSE 03:32:21 10° SE visible
27 Jan - 05:39:25 10° SW 05:43:17 24° S 05:48:38 10° ESE visible
27 Jan - 07:51:00 10° WSW 07:55:59 23° S 08:03:16 10° SE daylight
27 Jan - 10:05:43 10° SW 10:09:38 13° SSW 10:14:22 10° S daylight
28 Jan - 04:41:05 10° SSW 04:44:11 19° SSE 04:48:03 10° ESE visible
28 Jan - 06:52:12 10° SW 06:56:29 23° S 07:02:38 10° SE daylight
28 Jan - 09:05:28 10° SW 09:09:43 15° SSW 09:15:09 10° SSE daylight
29 Jan - 03:43:00 10° SSW 03:45:11 14° SSE 03:47:35 10° SE visible
29 Jan - 05:53:32 10° SW 05:57:12 22° S 06:02:08 10° SE visible
29 Jan - 08:05:57 10° SW 08:09:59 17° SSW 08:15:19 10° SSE daylight
